Flag for Namibia Weather past 2 weeks in Walvis Bay, Namibia

Now
59 °F

Cool.


Feels Like: 58 °F
Forecast: 61 / 71 °F
Wind: 8 mph from Northeast

Location: Walvis Bay

Current Time: Dec 29, 2014 at 7:26:28 AM

Latest Report: Dec 29, 2014 at 6:00 AM


Visibility: N/A

Pressure: 30.01 "Hg

Humidity: 82%

Dew point: 54 °F

Location of Walvis BayLocation

Historic Weather in Walvis Bay — Graph

°F

Walvis Bay temperature yesterday

Maximum temperature yesterday: 72 °F (at 2:00 PM)
Minimum temperature yesterday: 55 °F (at 2:00 AM)
Average temperature yesterday: 62 °F

Past Weeks' High & Low Weather Summary

 TemperatureHumidityPressure
High75 °F (Dec 21, 3:00 PM)94% (Dec 28, 2:00 AM)30.07 "Hg (Dec 28, 2:00 AM)
Low54 °F (Dec 15, 2:00 AM)39% (Dec 23, 5:00 PM)29.86 "Hg (Dec 15, 5:00 PM)
Average63 °F72%29.98 "Hg
* Reported Dec 14 6:00 AM — Dec 29 6:00 AM, Walvis Bay, Weather by CustomWeather, © 2014

Note: Actual official high and low records may vary slightly from our data, if they occured in-between our weather recording intervals... More about our weather records

Advertising

Walvis Bay weather history for previous 24 hours

 ConditionsComfort  
Time TempWeatherWind HumidityBarometerVisibility
6:00 AM
Dec 29
59 °FCool.8 mph82%30.01 "HgN/A
5:00 AM59 °FCool.10 mph82%30.01 "HgN/A
4:00 AM57 °FCool.8 mph88%29.98 "HgN/A
3:00 AM59 °FCool.8 mph82%29.98 "HgN/A
2:00 AM59 °FCool.7 mph82%29.98 "HgN/A
1:00 AM59 °FCool.6 mph82%30.01 "HgN/A
12:00 AM59 °FCool.5 mph82%30.01 "HgN/A
11:00 PM
Dec 28
59 °FCool.3 mph82%30.01 "HgN/A
10:00 PM59 °FCool.6 mph82%30.01 "HgN/A
9:00 PM61 °FCool.9 mph77%29.98 "HgN/A
8:00 PM63 °FMild.12 mph73%29.98 "HgN/A
7:00 PM66 °FMild.13 mph64%29.98 "HgN/A
6:00 PM68 °FMild.14 mph60%29.95 "HgN/A
5:00 PM70 °FMild.15 mph57%29.95 "HgN/A
4:00 PM72 °FMild.15 mph50%29.95 "HgN/A
3:00 PM72 °FMild.15 mph50%29.98 "HgN/A
2:00 PM72 °FPassing clouds.14 mph50%29.98 "HgN/A
1:00 PM70 °FSunny.9 mph53%30.01 "Hg10 mi
12:00 PM68 °FSunny.8 mph56%30.01 "Hg10 mi
11:00 AM66 °FPassing clouds.7 mph60%30.04 "HgN/A
10:00 AM63 °FPassing clouds.5 mph73%30.04 "HgN/A
9:00 AM61 °FPartly sunny.6 mph77%30.04 "HgN/A
8:00 AM57 °FLow clouds.3 mph88%30.01 "HgN/A
7:00 AM57 °FCool.6 mph88%30.01 "HgN/A
Weather by CustomWeather, © 2014

See weather overviewHow to use our weather pages